Location: Moscow
(55.7500°N, 37.5830°E)
Time: 12:59:37
(UTC+03:00)

S-56A Canister/Altair - Pass Details

Date: 06 December 2021
Orbit: 633 x 2499 km, 38.9° (Epoch: 17 January)

Event Time Altitude Azimuth Distance (km) Brightness Sun altitude
Rises 01:10:15 0° 235° (SW) 5,007 - -55.5°
Reaches altitude 10° 01:14:55 10° 222° (SW) 3,644 - -55.2°
Maximum altitude 01:20:56 20° 179° (S) 2,439 - -54.9°
Drops below altitude 10° 01:25:37 10° 134° (SE) 2,739 - -54.6°
Sets 01:28:31 0° 117° (ESE) 3,454 - -54.4°
